User: anonymous   Login
Location: Passo di Treia
(43.2833°N, 13.3333°E)
Time: 13:54:34
(UTC+00:00)
Language:

COSMOS 2428 - Orbit

View from above orbital plane
View from above orbital plane
View from above satellite
View from above satellite

Ground track
Ground track

The orbit data is extracted from the following two-line orbital elements,

1 31792U 07029A   20052.70606859 -.00000244  00000-0 -10602-3 0  9994
2 31792  70.9250 158.0884 0009336 254.8344 105.1744 14.12386041652388
Epoch (UTC): 21 February 2020 16:56:44
Eccentricity: 0.0009336
inclination: 70.9250°
perigee height: 844 km
apogee height: 858 km
right ascension of ascending node: 158.0884°
argument of perigee: 254.8344°
revolutions per day: 14.12386041
mean anomaly at epoch: 105.1744°
orbit number at epoch: 65238

The dashed part of the orbit path shows where the satellite is in the earth's shadow,  

DLR